Location: ??????
(55.2000°N, 38.3000°E)
Time: 08:22:44
(UTC+00:00)

Cosmos 2219 Rocket - Pass Details

Date: 15 November 2025
Orbit: 825 x 846 km, 71.0° (Epoch: 14 December)

Event Time Altitude Azimuth Distance (km) Brightness Sun altitude
Exits shadow 02:44:41 22° 320° (NW) 1,776 3.5 -18.9°
Maximum altitude 02:45:36 23° 334° (NNW) 1,739 3.5 -18.8°
Drops below altitude 10° 02:50:03 10° 26° (NNE) 2,483 4.9 -18.1°
Sets 02:53:04 0° 41° (NE) 3,421 5.8 -17.7°
